Weather History for CYQG - October, 2012

Change the Weather History Date:

Saturday, October 13, 2012

  Actual Average Record
Temperature  
Mean Temperature 46 °F -  
Max Temperature 59 °F 54 °F 77 °F (1997)
Min Temperature 32 °F 39 °F 32 °F (2012)
Degree Days  
Heating Degree Days 20    
Moisture  
Dew Point 40 °F    
Average Humidity 78    
Maximum Humidity 100    
Minimum Humidity 55    
Precipitation  
Precipitation 0.47 in 0.09 in - ()
Sea Level Pressure  
Sea Level Pressure 30.21 in    
Wind  
Wind Speed 5 mph ()    
Max Wind Speed 15 mph    
Max Gust Speed 20 mph    
Visibility 12.3 miles    
Events Rain    
Averages and records for this station are not official NWS values.
T = Trace of Precipitation, MM = Missing Value Source: Averaged Metar Reports

Daily Weather History Graph

Daily Weather History Graph

Search for Another Location

Airport or City:

Trip Planner

Search our weather history database for the weather conditions in past years. The results will help you decide how hot, cold, wet, or windy it might be!

Date:

Astronomy

Oct. 13, 2012 Rise Set
Actual Time 7:42 AM EDT 6:52 PM EDT
Civil Twilight 7:14 AM EDT 7:20 PM EDT
Nautical Twilight 6:42 AM EDT 7:52 PM EDT
Astronomical Twilight 6:09 AM EDT 8:25 PM EDT
Moon 5:29 AM EDT (10/13) 5:36 PM EDT (10/13)
Length of Visible Light 12h 05m
Length of Day
11h 09m
Waning Crescent, 5% of the Moon is Illuminated
Oct 13
Waning Crescent
Oct 15
New
Oct 21
First Quarter
Oct 29
Full
Nov 6
Last Quarter

Hourly Weather History & Observations

Time (EDT) Temp. Windchill Dew Point Humidity Pressure Visibility Wind Dir Wind Speed Gust Speed Precip Events Conditions
12:00 AM 37.4 °F - 28.4 °F 70% 30.43 in 15.0 mi East 2.3 mph - N/A   Partly Cloudy
1:00 AM 35.6 °F - 28.4 °F 75% 30.41 in 15.0 mi Calm Calm - N/A   Partly Cloudy
2:00 AM 36 °F - 29 °F 65% 30.38 in 15 mi SE 5.8 mph - -   Clear
2:00 AM 37.4 °F 33.8 °F 28.4 °F 70% 30.38 in 15.0 mi SE 4.6 mph - N/A   Partly Cloudy
3:00 AM 33.8 °F - 28.4 °F 81% 30.37 in 15.0 mi Calm Calm - N/A   Partly Cloudy
4:00 AM 33.8 °F - 26.6 °F 75% 30.37 in 15.0 mi Calm Calm - N/A   Partly Cloudy
5:00 AM 33.8 °F 30.8 °F 28.4 °F 81% 30.35 in 15.0 mi ESE 3.5 mph - N/A   Partly Cloudy
6:00 AM 37.4 °F 32.8 °F 32.0 °F 81% 30.34 in 15.0 mi SE 5.8 mph - N/A   Partly Cloudy
7:00 AM 37.4 °F - 33.8 °F 87% 30.35 in 15.0 mi ESE 2.3 mph - N/A   Mostly Cloudy
8:00 AM 39 °F - 35 °F 79% 30.31 in 15 mi SE 4.6 mph - -   Scattered Clouds
8:00 AM 39.2 °F 35.9 °F 35.6 °F 87% 30.31 in 15.0 mi SE 4.6 mph - N/A   Mostly Cloudy
9:00 AM 42.8 °F 40.1 °F 37.4 °F 81% 30.29 in 15.0 mi ESE 4.6 mph - N/A   Mostly Cloudy
10:00 AM 48.2 °F - 39.2 °F 71% 30.31 in 15.0 mi SSW 2.3 mph - N/A   Overcast
10:09 AM - - - N/A% - 15.0 mi SSW 2.3 mph - N/A Rain Light Rain
11:00 AM 48.2 °F - 39.2 °F 71% 30.29 in 15.0 mi ESE 4.6 mph - N/A Rain Light Rain
12:00 PM 48.2 °F - 42.8 °F 82% 30.26 in 15.0 mi ESE 4.6 mph - N/A   Overcast
12:41 PM - - - N/A% - 15.0 mi SE 5.8 mph - N/A   Overcast
1:00 PM 51.8 °F - 42.8 °F 71% 30.22 in 15.0 mi SE 6.9 mph - N/A   Overcast
2:00 PM 54 °F - 42 °F 55% 30.15 in 15 mi SSE 11.5 mph - -   Partly Cloudy
2:00 PM 53.6 °F - 42.8 °F 67% 30.15 in 15.0 mi SSE 12.7 mph - N/A   Overcast
3:00 PM 53.6 °F - 44.6 °F 72% 30.12 in 10.0 mi SSE 11.5 mph - N/A   Overcast
3:54 PM - - - N/A% - 12.0 mi SE 11.5 mph - N/A Rain Light Rain Showers
4:00 PM 55.4 °F - 44.6 °F 67% 30.07 in 15.0 mi SE 11.5 mph - N/A Rain Light Rain Showers
4:35 PM - - - N/A% - 15.0 mi SE 10.4 mph 17.3 mph N/A   Overcast
4:43 PM - - - N/A% - 12.0 mi SE 12.7 mph - N/A Rain Light Rain Showers
5:00 PM 55.4 °F - 46.4 °F 72% 30.02 in 7.0 mi SSE 10.4 mph - N/A Rain Light Rain Showers
6:00 PM 53.6 °F - 50.0 °F 88% 29.99 in 8.0 mi SSE 10.4 mph - N/A Rain Light Rain Showers
7:00 PM 55.4 °F - 51.8 °F 88% 29.97 in 10.0 mi South 12.7 mph - N/A Rain Light Rain Showers
7:52 PM - - - N/A% - 10.0 mi SSW 10.4 mph - N/A   Overcast
8:00 PM 59.0 °F - 53.6 °F 82% 29.96 in 15.0 mi SSW 13.8 mph - N/A   Overcast
8:20 PM - - - N/A% - 10.0 mi South 13.8 mph 19.6 mph N/A Rain Light Rain Showers
9:00 PM 57.2 °F - 55.4 °F 94% 29.94 in 4.0 mi SSW 13.8 mph - N/A Rain Light Rain Showers
10:00 PM 57.2 °F - 57.2 °F 100% 29.94 in 7.0 mi SSW 6.9 mph - N/A Rain Light Rain
10:49 PM - - - N/A% - 2.0 mi SW 8.1 mph - N/A Rain Light Rain Showers
11:00 PM 57.2 °F - 57.2 °F 100% 29.93 in 2.0 mi SSW 9.2 mph - N/A Rain Rain Showers
11:43 PM - - - N/A% - 5.0 mi SSW 15.0 mph - N/A Rain Light Rain Showers